STARLINK-32631, 62235

Orbit data source: Space-Track

STARLINK-32631, 62235 is a payload satellite owned by SpaceX/Seattle (US) in LEO that was launched on Thu, 05 Dec 2024 UTC via an FALCON 9 launch vehicle from the Air Force Western Test Range (AFWTR). Payload-class satellites include a variety of spacecraft equipped with specific instruments for various scientific and technological missions. These include communications satellites like Starlink; space stations such as the ISS; scientific satellites like the Hubble; Earth observation satellites from companies like Planet Labs, Umbra, and HawkEye 360; GPS; miniature CubeSats for education and research; and military/defense satellites.

Loading next visibility...
Identifier
62235, 2024-231T
Orbit
LEO
Country
Flag of USUS
Related business
Manufacturer
SpaceX/Seattle
Mission
Operational Commercial Communications
Bus & Motor
STARLINK V2M, Unknown motor
Mass
730 kg wet, ~700 kg dry
Launch date (UTC)
2024-12-05 (1 year ago)
Launch vehicle
FALCON 9
Launch site
Air Force Western Test Range (AFWTR)
Object type
Payload
Rocket body
Debris
Shape & HBR
Box + 2 Pan, 17.7 m
Radar Cross Section
33.884 m², Large (>1 m²)

Expand to show TLE details & history
Last TLE update: 6 hours ago

TLE from 6 hours ago
0 STARLINK-32631
1 62235U 24231T   26125.78273432  .00011910  00000-0  39486-3 0  9997
2 62235  53.1596 301.3727 0001020  95.1896 264.9222 15.31706663 80680
Epoch: 2026-05-05T18:47Z
TLE epoch observation values (Epoch: 2026-05-05T18:47:08.245Z)
Latitude
Longitude
155.93572°
Altitude
471.682 km
Speed
7.631 km/s
True Right ascension
20h 05m 29s
True Declination
0° 00' 00"
Sunlit
Object was in daylight at epoch
Visualization orbit readout
Latitude
Unknown
Longitude
Unknown
Altitude
Unknown
Speed
Unknown
Apparent Right ascension
Unknown
Apparent Declination
Unknown
Sunlit
N/A
Visualization observer readout
Local Sidereal Time
08:24:44
Azimuth
Unknown
Elevation
Unknown
Doppler factor
Unknown
Orbital elements
Apogee altitude
471.675 km
Perigee altitude
470.278 km
Semi-major axis
6,849.114 km
Eccentricity
0.0001
Inclination
53.1596°
RAAN
301.3727°
Arg. of periapsis
95.1896°
True anomaly
264.91056°
Mean anomaly
264.9222°
Eccentric anomaly
264.91638°
Mean motion
3.82905 °/min
Orbital period
94.02 mins
BSTAR
0.00039486
Loading maneuver chart data...
Computing Atmospheric mass density...
Loading historical data...
Loading historical data...
Loading historical data...
Loading historical data...
Loading historical data...
Loading historical data...
Loading historical data...

Documentation

Showing up to 5 results
|